VE1DX Weather Reports


Display with metric or nautical units.
time (UTC)temp
F
wind
direction
speed
MPH
gust
MPH
rain 1hr
in
rain 24hr
in
rain mn
in
humidity
%
barometer
mb
20260507122516 49 158 3.0 8.0 0.04 0.21 0.21 94 1007.5
20260507122016 49 158 4.0 9.0 0.05 0.21 0.21 94 1007.4
20260507121516 49 158 3.0 10.0 0.06 0.21 0.21 94 1007.5
20260507121016 50 203 4.0 8.0 0.07 0.21 0.21 94 1007.3
20260507120516 50 203 3.0 8.0 0.09 0.21 0.21 94 1007.1
20260507120016 50 158 3.0 11.0 0.09 0.20 0.20 94 1007.3
20260507115516 50 158 2.0 8.0 0.10 0.20 0.20 94 1007.3
20260507115016 50 158 2.0 8.0 0.10 0.20 0.20 94 1007.4
20260507114516 49 180 2.0 7.0 0.09 0.19 0.19 94 1007.4
20260507114016 49 135 2.0 7.0 0.10 0.19 0.19 94 1007.7
20260507113516 49 180 3.0 9.0 0.09 0.18 0.18 94 1007.6
20260507113016 49 113 2.0 11.0 0.09 0.17 0.17 94 1007.6
20260507112516 49 158 2.0 6.0 0.09 0.17 0.17 94 1007.6
20260507112015 49 135 3.0 7.0 0.09 0.17 0.17 94 1007.6
20260507111516 49 135 2.0 6.0 0.07 0.15 0.15 94 1007.8
20260507111015 49 158 3.0 7.0 0.06 0.14 0.14 94 1007.9
20260507110515 50 135 3.0 8.0 0.05 0.13 0.13 94 1008.0
20260507110016 49 158 3.0 8.0 0.04 0.12 0.12 94 1008.1
20260507105515 49 135 3.0 7.0 0.02 0.10 0.10 94 1008.1
20260507105015 49 158 2.0 7.0 0.02 0.09 0.09 94 1008.0
20260507104516 49 135 2.0 5.0 0.02 0.09 0.09 93 1008.1
20260507104016 49 135 3.0 10.0 0.02 0.09 0.09 93 1008.1
20260507103516 49 135 2.0 6.0 0.05 0.09 0.09 94 1008.2
20260507103016 49 135 2.0 5.0 0.06 0.09 0.09 94 1008.2
20260507102516 49 158 3.0 8.0 0.06 0.08 0.08 93 1008.3
20260507102016 49 135 3.0 7.0 0.06 0.08 0.08 93 1008.4
20260507101516 48 135 3.0 9.0 0.06 0.08 0.08 93 1008.6
20260507101016 48 135 2.0 7.0 0.07 0.08 0.08 93 1008.5
20260507100516 48 135 2.0 6.0 0.07 0.08 0.08 93 1008.6
20260507100016 48 135 3.0 10.0 0.07 0.08 0.08 93 1008.7
20260507095516 48 158 3.0 7.0 0.08 0.08 0.08 93 1008.6
20260507095016 48 135 2.0 6.0 0.08 0.08 0.08 93 1008.6
20260507094516 48 158 1.0 5.0 0.07 0.07 0.07 92 1008.6
20260507094016 48 135 2.0 8.0 0.06 0.06 0.06 92 1008.7
20260507093517 48 135 2.0 5.0 0.04 0.04 0.04 92 1008.9
20260507093017 47 158 2.0 7.0 0.03 0.03 0.03 92 1008.5
20260507092516 47 158 2.0 6.0 0.02 0.02 0.02 91 1008.6
20260507092016 47 158 2.0 6.0 0.02 0.02 0.02 91 1008.5
20260507091517 47 135 1.0 4.0 0.02 0.02 0.02 91 1008.6
20260507091016 48 135 2.0 6.0 0.01 0.01 0.01 91 1008.6
20260507090516 47 135 2.0 5.0 0.01 0.01 0.01 90 1008.8
20260507090016 47 135 2.0 7.0 0.01 0.01 0.01 90 1008.7
20260507085517 47 135 2.0 4.0 0.00 0.00 0.00 90 1008.8
20260507085016 47 135 1.0 5.0 0.00 0.00 0.00 90 1008.9
20260507084516 47 0.0 3.0 0.00 0.00 0.00 90 1009.1
20260507084016 47 0.0 4.0 0.00 0.00 0.00 90 1009.0
20260507083516 47 135 1.0 3.0 0.00 0.00 0.00 90 1009.3
20260507083016 47 135 1.0 4.0 0.00 0.00 0.00 89 1009.3
20260507082516 47 135 1.0 2.0 0.00 0.00 0.00 89 1009.4
20260507082017 47 135 1.0 3.0 0.00 0.00 0.00 89 1009.6
20260507081536 47 158 2.0 5.0 0.00 0.00 0.00 88 1009.7
20260507081016 47 135 2.0 11.0 0.00 0.00 0.00 87 1009.7
20260507080516 48 135 2.0 7.0 0.00 0.00 0.00 87 1009.7
20260507080016 48 135 1.0 3.0 0.00 0.00 0.00 87 1009.7
20260507075516 48 158 1.0 4.0 0.00 0.00 0.00 87 1009.9
20260507075016 48 135 1.0 2.0 0.00 0.00 0.00 87 1009.8
20260507074516 48 135 1.0 3.0 0.00 0.00 0.00 87 1009.9
20260507074016 48 135 1.0 4.0 0.00 0.00 0.00 87 1010.1
20260507073516 48 113 1.0 5.0 0.00 0.00 0.00 87 1010.3
20260507073016 48 135 1.0 4.0 0.00 0.00 0.00 86 1010.2
20260507072516 48 180 2.0 5.0 0.00 0.00 0.00 86 1010.1
20260507072016 49 158 4.0 12.0 0.00 0.00 0.00 86 1010.1
20260507071516 48 113 2.0 8.0 0.00 0.00 0.00 86 1010.3
20260507071016 48 135 1.0 5.0 0.00 0.00 0.00 86 1010.0
20260507070516 49 135 2.0 3.0 0.00 0.00 0.00 86 1010.3
20260507070016 49 113 2.0 6.0 0.00 0.00 0.00 85 1010.4
20260507065516 49 158 1.0 4.0 0.00 0.00 0.00 85 1010.5
20260507065015 50 158 2.0 6.0 0.00 0.00 0.00 85 1010.5
20260507064516 50 135 2.0 5.0 0.00 0.00 0.00 86 1010.2
20260507064018 49 158 2.0 7.0 0.00 0.00 0.00 86 1010.4
20260507063516 49 135 2.0 8.0 0.00 0.00 0.00 86 1010.7
20260507063016 49 158 1.0 7.0 0.00 0.00 0.00 86 1010.9
20260507062516 49 135 2.0 6.0 0.00 0.00 0.00 87 1011.1
20260507062016 49 158 2.0 7.0 0.00 0.00 0.00 87 1011.1
20260507061516 49 225 1.0 4.0 0.00 0.00 0.00 86 1011.0
20260507061016 49 158 2.0 4.0 0.00 0.00 0.00 86 1010.7
20260507060516 49 135 2.0 5.0 0.00 0.00 0.00 87 1010.7
20260507060016 49 0.0 2.0 0.00 0.00 0.00 87 1011.0
20260507055515 49 135 1.0 3.0 0.00 0.00 0.00 87 1011.2
20260507055016 49 225 1.0 3.0 0.00 0.00 0.00 87 1010.9
20260507054516 49 113 1.0 5.0 0.00 0.00 0.00 86 1011.7
20260507054016 49 158 1.0 3.0 0.00 0.00 0.00 86 1011.8
20260507053515 49 135 1.0 5.0 0.00 0.00 0.00 86 1011.8
20260507053016 49 135 1.0 6.0 0.00 0.00 0.00 86 1012.1
20260507052515 49 135 1.0 4.0 0.00 0.00 0.00 86 1012.3
20260507052016 49 135 1.0 6.0 0.00 0.00 0.00 86 1012.6
20260507051516 49 180 1.0 6.0 0.00 0.00 0.00 86 1012.7
20260507051015 49 225 1.0 4.0 0.00 0.00 0.00 86 1012.9
20260507050516 49 158 1.0 4.0 0.00 0.00 0.00 85 1012.9
20260507050016 49 158 2.0 5.0 0.00 0.00 0.00 85 1013.0
20260507045516 50 135 1.0 5.0 0.00 0.00 0.00 85 1013.1
20260507045016 50 135 2.0 9.0 0.00 0.00 0.00 85 1013.4
20260507044515 50 135 1.0 3.0 0.00 0.00 0.00 86 1013.3
20260507044015 50 158 2.0 8.0 0.00 0.00 0.00 86 1013.5
20260507043515 49 113 1.0 4.0 0.00 0.00 0.00 86 1013.5
20260507043016 49 135 1.0 7.0 0.00 0.00 0.00 87 1013.5
20260507042516 49 113 1.0 5.0 0.00 0.00 0.00 87 1013.5
20260507042017 49 135 1.0 3.0 0.00 0.00 0.00 87 1013.6
20260507041515 49 0.0 2.0 0.00 0.00 0.00 87 1013.7
20260507041016 48 0.0 2.0 0.00 0.00 0.00 87 1013.9
20260507040516 48 135 1.0 2.0 0.00 0.00 0.00 87 1013.9
20260507040016 48 135 1.0 3.0 0.00 0.00 0.00 87 1013.8
20260507035516 48 135 1.0 3.0 0.00 0.00 0.00 87 1013.9
20260507035016 48 135 2.0 3.0 0.00 0.00 0.00 87 1013.9
20260507034516 48 135 1.0 2.0 0.00 0.00 0.00 87 1014.1
20260507034015 48 135 1.0 3.0 0.00 0.00 0.00 87 1014.3
20260507033515 48 158 1.0 3.0 0.00 0.00 0.00 87 1014.4
20260507033016 48 113 1.0 3.0 0.00 0.00 0.00 87 1014.5
20260507032516 48 135 1.0 3.0 0.00 0.00 0.00 87 1014.6
20260507032016 48 135 1.0 3.0 0.00 0.00 0.00 87 1014.6
20260507031516 48 158 1.0 2.0 0.00 0.00 0.00 87 1014.6
20260507031016 48 135 2.0 4.0 0.00 0.00 0.00 87 1014.6
20260507030516 48 135 1.0 3.0 0.00 0.00 0.00 88 1014.7
20260507030016 48 0.0 0.0 0.00 0.00 0.00 88 1014.9
20260507025516 47 113 1.0 3.0 0.00 0.00 0.00 87 1014.9
20260507025016 47 135 1.0 3.0 0.00 0.00 0.00 87 1015.1
20260507024516 47 135 1.0 2.0 0.00 0.00 0.00 87 1015.2
20260507024016 47 135 1.0 3.0 0.00 0.00 0.00 87 1015.4
20260507023516 47 113 1.0 3.0 0.00 0.00 0.00 87 1015.4
20260507023016 47 113 1.0 4.0 0.00 0.00 0.00 87 1015.6
20260507022516 47 0.0 2.0 0.00 0.00 0.00 87 1015.8
20260507022016 47 135 1.0 3.0 0.00 0.00 0.00 87 1015.7
20260507021517 47 0.0 2.0 0.00 0.00 0.00 87 1015.9
20260507021016 47 0.0 3.0 0.00 0.00 0.00 87 1015.9
20260507020517 47 135 1.0 4.0 0.00 0.00 0.00 87 1016.0
20260507020016 47 135 1.0 4.0 0.00 0.00 0.00 87 1015.9
20260507015516 48 158 1.0 5.0 0.00 0.00 0.00 87 1016.0
20260507015017 48 135 2.0 5.0 0.00 0.00 0.00 87 1016.0
20260507014516 47 135 1.0 3.0 0.00 0.00 0.00 87 1016.1
20260507014016 47 135 1.0 4.0 0.00 0.00 0.00 87 1016.1
20260507013516 48 135 1.0 3.0 0.00 0.00 0.00 87 1016.2
20260507013016 48 135 1.0 3.0 0.00 0.00 0.00 86 1016.2
20260507012516 48 113 1.0 4.0 0.00 0.00 0.00 86 1016.3
20260507012016 48 225 1.0 7.0 0.00 0.00 0.00 86 1016.4
20260507011516 48 135 1.0 3.0 0.00 0.00 0.00 86 1016.5
20260507011016 48 135 1.0 6.0 0.00 0.00 0.00 85 1016.5
20260507010516 48 135 1.0 3.0 0.00 0.00 0.00 85 1016.6
20260507010016 48 135 1.0 4.0 0.00 0.00 0.00 85 1016.6
20260507005516 49 135 2.0 5.0 0.00 0.00 0.00 85 1016.6
20260507005016 49 135 1.0 4.0 0.00 0.00 0.00 85 1016.7
20260507004516 49 135 2.0 5.0 0.00 0.00 0.00 85 1016.7
20260507004016 49 135 1.0 4.0 0.00 0.00 0.00 85 1016.8
20260507003516 49 158 1.0 4.0 0.00 0.00 0.00 84 1016.7
20260507003016 49 225 1.0 5.0 0.00 0.00 0.00 84 1016.8
20260507002516 49 158 1.0 4.0 0.00 0.00 0.00 84 1016.7
20260507002016 49 158 1.0 3.0 0.00 0.00 0.00 83 1016.8
20260507001516 49 135 1.0 2.0 0.00 0.00 0.00 83 1016.7
20260507001016 49 135 1.0 6.0 0.00 0.00 0.00 83 1016.7
20260507000516 49 135 1.0 4.0 0.00 0.00 0.00 83 1016.7
20260507000016 49 135 1.0 4.0 0.00 0.00 0.00 83 1016.6
20260506235516 49 158 1.0 5.0 0.00 0.00 0.00 82 1016.6
20260506235016 49 135 1.0 3.0 0.00 0.00 0.00 82 1016.5
20260506234516 50 135 2.0 4.0 0.00 0.00 0.00 81 1016.5
20260506234016 50 135 1.0 5.0 0.00 0.00 0.00 81 1016.5
20260506233516 50 135 2.0 4.0 0.00 0.00 0.00 81 1016.5
20260506233017 50 135 2.0 5.0 0.00 0.00 0.00 81 1016.6
20260506232516 50 135 2.0 7.0 0.00 0.00 0.00 81 1016.6
20260506232016 51 158 2.0 5.0 0.00 0.00 0.00 80 1016.6
20260506231516 51 135 1.0 3.0 0.00 0.00 0.00 80 1016.7
20260506231016 51 135 2.0 7.0 0.00 0.00 0.00 79 1016.6
20260506230516 52 135 2.0 5.0 0.00 0.00 0.00 79 1016.7
20260506230017 52 135 2.0 5.0 0.00 0.00 0.00 79 1016.6
20260506225516 52 158 2.0 5.0 0.00 0.00 0.00 79 1016.6
20260506225016 52 135 2.0 5.0 0.00 0.00 0.00 78 1016.7
20260506224517 53 135 2.0 6.0 0.00 0.00 0.00 78 1016.7
20260506224016 53 158 1.0 4.0 0.00 0.00 0.00 78 1016.7
20260506223516 53 135 2.0 6.0 0.00 0.00 0.00 78 1016.8
20260506223016 53 158 2.0 8.0 0.00 0.00 0.00 78 1016.9
20260506222516 53 180 2.0 7.0 0.00 0.00 0.00 78 1016.9
20260506222016 53 135 2.0 4.0 0.00 0.00 0.00 78 1016.7
20260506221516 54 135 2.0 5.0 0.00 0.00 0.00 78 1016.8
20260506221016 54 135 2.0 7.0 0.00 0.00 0.00 78 1016.7
20260506220516 54 135 2.0 6.0 0.00 0.00 0.00 78 1016.6
20260506220016 54 158 3.0 7.0 0.00 0.00 0.00 77 1016.7
20260506215516 54 158 3.0 10.0 0.00 0.00 0.00 77 1016.7
20260506215016 54 135 2.0 6.0 0.00 0.00 0.00 77 1016.8
20260506214516 55 135 3.0 8.0 0.00 0.00 0.00 76 1016.7
20260506214016 55 113 2.0 5.0 0.00 0.00 0.00 76 1016.7
20260506213516 55 158 2.0 7.0 0.00 0.00 0.00 75 1016.6
20260506213016 56 135 3.0 8.0 0.00 0.00 0.00 75 1016.6
20260506212516 57 158 3.0 6.0 0.00 0.00 0.00 75 1016.6
20260506212016 57 225 3.0 9.0 0.00 0.00 0.00 75 1016.6
20260506211516 58 135 3.0 8.0 0.00 0.00 0.00 74 1016.5
20260506211016 58 158 3.0 8.0 0.00 0.00 0.00 74 1016.3
20260506210516 58 135 4.0 12.0 0.00 0.00 0.00 74 1016.3
20260506210016 59 135 4.0 13.0 0.00 0.00 0.00 74 1016.3
20260506205516 59 158 4.0 12.0 0.00 0.00 0.00 73 1016.4
20260506205016 60 135 3.0 13.0 0.00 0.00 0.00 73 1016.5
20260506204516 60 158 3.0 8.0 0.00 0.00 0.00 72 1016.5
20260506204016 61 135 4.0 10.0 0.00 0.00 0.00 72 1016.5
20260506203516 61 158 4.0 12.0 0.00 0.00 0.00 71 1016.6
20260506203016 62 113 4.0 10.0 0.00 0.00 0.00 71 1016.6
20260506202516 62 158 4.0 17.0 0.00 0.00 0.00 71 1016.5
20260506202016 63 203 4.0 12.0 0.00 0.00 0.00 71 1016.6
20260506201516 62 225 5.0 17.0 0.00 0.00 0.00 72 1016.7
20260506201016 62 158 3.0 10.0 0.00 0.00 0.00 72 1016.7
20260506200516 62 135 4.0 12.0 0.00 0.00 0.00 72 1016.7
20260506200016 62 203 3.0 9.0 0.00 0.00 0.00 71 1016.8
20260506195516 62 225 4.0 10.0 0.00 0.00 0.00 71 1016.8
20260506195016 62 135 3.0 8.0 0.00 0.00 0.00 70 1016.9
20260506194516 62 135 3.0 8.0 0.00 0.00 0.00 71 1016.8
20260506194016 62 135 3.0 9.0 0.00 0.00 0.00 72 1017.0
20260506193516 62 180 5.0 12.0 0.00 0.00 0.00 71 1017.0
20260506193016 62 203 3.0 8.0 0.00 0.00 0.00 72 1017.1
20260506192516 62 158 4.0 8.0 0.00 0.00 0.00 72 1017.2
20260506192016 61 158 5.0 17.0 0.00 0.00 0.00 73 1017.4
20260506191516 61 225 5.0 11.0 0.00 0.00 0.00 72 1017.3
20260506191016 62 158 4.0 10.0 0.00 0.00 0.00 72 1017.3
20260506190516 62 135 5.0 18.0 0.00 0.00 0.00 72 1017.3
20260506190016 62 158 4.0 14.0 0.00 0.00 0.00 72 1017.3
20260506185516 62 135 4.0 15.0 0.00 0.00 0.00 73 1017.5
20260506185016 62 135 4.0 10.0 0.00 0.00 0.00 72 1017.5
20260506184516 62 158 4.0 12.0 0.00 0.00 0.00 72 1017.5
20260506184016 62 158 4.0 11.0 0.00 0.00 0.00 71 1017.4
20260506183516 62 135 4.0 13.0 0.00 0.00 0.00 72 1017.6
20260506183016 63 158 4.0 10.0 0.00 0.00 0.00 72 1017.7
20260506182516 63 113 4.0 10.0 0.00 0.00 0.00 72 1017.7
20260506182016 62 158 4.0 15.0 0.00 0.00 0.00 72 1017.7
20260506181516 62 135 4.0 13.0 0.00 0.00 0.00 72 1017.8
20260506181016 63 180 4.0 10.0 0.00 0.00 0.00 72 1017.9
20260506180516 63 158 3.0 7.0 0.00 0.00 0.00 72 1017.9
20260506180016 62 113 4.0 9.0 0.00 0.00 0.00 73 1018.0
20260506175516 62 158 3.0 11.0 0.00 0.00 0.00 74 1018.0
20260506175016 61 158 4.0 8.0 0.00 0.00 0.00 73 1018.1
20260506174516 62 135 5.0 16.0 0.00 0.00 0.00 74 1018.1
20260506174016 62 180 5.0 10.0 0.00 0.00 0.00 74 1018.2
20260506173516 61 203 4.0 9.0 0.00 0.00 0.00 74 1018.1
20260506173016 61 158 4.0 10.0 0.00 0.00 0.00 74 1018.1
20260506172516 61 158 4.0 12.0 0.00 0.00 0.00 74 1018.1
20260506172016 61 135 3.0 9.0 0.00 0.00 0.00 75 1018.0
20260506171516 61 158 4.0 11.0 0.00 0.00 0.00 75 1018.0
20260506171017 60 158 4.0 10.0 0.00 0.00 0.00 75 1018.0
20260506170516 61 135 3.0 10.0 0.00 0.00 0.00 75 1018.1
20260506170016 61 180 4.0 8.0 0.00 0.00 0.00 75 1018.2
20260506165516 60 135 4.0 13.0 0.00 0.00 0.00 74 1018.1
20260506165016 61 158 3.0 12.0 0.00 0.00 0.00 73 1018.2
20260506164516 61 158 4.0 12.0 0.00 0.00 0.00 74 1018.3
20260506164016 62 158 4.0 11.0 0.00 0.00 0.00 74 1018.2
20260506163516 62 135 4.0 10.0 0.00 0.00 0.00 74 1018.3
20260506163016 62 158 4.0 11.0 0.00 0.00 0.00 74 1018.3
20260506162516 62 158 4.0 11.0 0.00 0.00 0.00 75 1018.2
20260506162016 62 135 5.0 11.0 0.00 0.00 0.00 75 1018.2
20260506161516 62 135 3.0 10.0 0.00 0.00 0.00 75 1018.3
20260506161016 62 180 3.0 9.0 0.00 0.00 0.00 75 1018.4
20260506160516 62 158 4.0 12.0 0.00 0.00 0.00 74 1018.4
20260506160016 62 135 3.0 8.0 0.00 0.00 0.00 74 1018.4
20260506155516 62 225 4.0 7.0 0.00 0.00 0.00 74 1018.5
20260506155016 62 135 5.0 13.0 0.00 0.00 0.00 74 1018.5
20260506154516 62 158 4.0 9.0 0.00 0.00 0.00 74 1018.4
20260506154016 62 158 4.0 14.0 0.00 0.00 0.00 74 1018.5
20260506153516 62 180 3.0 9.0 0.00 0.00 0.00 74 1018.7
20260506153016 62 158 4.0 11.0 0.00 0.00 0.00 74 1018.5
20260506152516 62 158 3.0 6.0 0.00 0.00 0.00 75 1018.6
20260506152017 61 180 3.0 10.0 0.00 0.00 0.00 77 1018.8
20260506151516 60 135 4.0 9.0 0.00 0.00 0.00 77 1018.9
20260506151016 60 225 5.0 16.0 0.00 0.00 0.00 78 1018.8
20260506150516 60 225 4.0 11.0 0.00 0.00 0.00 77 1018.8
20260506150016 59 203 4.0 12.0 0.00 0.00 0.00 78 1018.9
20260506145516 59 158 4.0 9.0 0.00 0.00 0.00 78 1018.7
20260506145016 59 135 4.0 10.0 0.00 0.00 0.00 78 1018.6
20260506144516 59 113 3.0 7.0 0.00 0.00 0.00 79 1018.8
20260506144016 59 158 4.0 9.0 0.00 0.00 0.00 79 1018.7
20260506143516 58 158 4.0 10.0 0.00 0.00 0.00 79 1018.7
20260506143016 58 158 3.0 9.0 0.00 0.00 0.00 79 1018.7
20260506142516 58 135 4.0 11.0 0.00 0.00 0.00 79 1018.7
20260506142016 59 135 4.0 9.0 0.00 0.00 0.00 79 1018.7
20260506141516 59 135 3.0 7.0 0.00 0.00 0.00 79 1018.7
20260506141016 59 203 4.0 11.0 0.00 0.00 0.00 80 1018.6
20260506140516 59 158 5.0 11.0 0.00 0.00 0.00 80 1018.6
20260506140016 59 113 4.0 15.0 0.00 0.00 0.00 80 1018.7
20260506135516 59 225 5.0 13.0 0.00 0.00 0.00 81 1018.6
20260506135016 59 113 3.0 8.0 0.00 0.00 0.00 82 1018.5
20260506134516 59 113 3.0 9.0 0.00 0.00 0.00 82 1018.5
20260506134017 58 158 3.0 10.0 0.00 0.00 0.00 83 1018.5
20260506133516 58 180 4.0 14.0 0.00 0.00 0.00 83 1018.5
20260506133016 58 158 3.0 10.0 0.00 0.00 0.00 84 1018.4
20260506132516 58 225 3.0 13.0 0.00 0.00 0.00 84 1018.3
20260506132016 57 135 3.0 10.0 0.00 0.00 0.00 84 1018.2
20260506131516 57 135 3.0 7.0 0.00 0.00 0.00 85 1018.1
20260506131016 57 113 3.0 14.0 0.00 0.00 0.00 85 1018.1
20260506130516 56 158 4.0 12.0 0.00 0.00 0.00 86 1018.1
20260506130016 56 158 4.0 11.0 0.00 0.00 0.00 87 1018.2
20260506125516 55 135 1.0 4.0 0.00 0.00 0.00 88 1018.2
20260506125016 55 225 2.0 5.0 0.00 0.00 0.00 89 1018.3
20260506124516 54 135 3.0 8.0 0.00 0.00 0.00 89 1018.4
20260506124016 54 203 2.0 6.0 0.00 0.00 0.00 90 1018.5
20260506123516 53 203 2.0 7.0 0.00 0.00 0.00 90 1018.7
20260506123016 53 113 3.0 7.0 0.00 0.00 0.00 90 1018.5